Springboro, OH

2:30 AM EDT on August 24, 2016 (GMT -0400)
Dayton-Wright Brothers

Weather History for KMGY - October, 2013

Change the Weather History Date:

Wednesday, October 9, 2013

  Actual Average (KFFO) Record (KFFO)
Temperature  
Mean Temperature 58 °F -  
Max Temperature 72 °F 65 °F 84 °F (2010)
Min Temperature 46 °F 43 °F 35 °F (2000)
Degree Days  
Heating Degree Days 6    
Growing Degree Days 8 (Base 50)    
Moisture  
Dew Point 45 °F    
Average Humidity 64    
Maximum Humidity 86    
Minimum Humidity 38    
Precipitation  
Precipitation 0.00 in - - ()
Sea Level Pressure  
Sea Level Pressure 30.21 in    
Wind  
Wind Speed 6 mph (ENE)    
Max Wind Speed 9 mph    
Max Gust Speed -    
Visibility 10 miles    
Events      
Averages and records for this station are not official NWS values.
T = Trace of Precipitation, MM = Missing Value Source: NWS Daily Summary

Daily Weather History Graph

Daily Weather History Graph

Search for Another Location

Airport or City:

Trip Planner

Search our weather history database for the weather conditions in past years. The results will help you decide how hot, cold, wet, or windy it might be!

Date:

Astronomy

Oct. 09, 2013 Rise Set
Actual Time 7:41 AM EDT 7:06 PM EDT
Civil Twilight 7:14 AM EDT 7:33 PM EDT
Nautical Twilight 6:42 AM EDT 8:04 PM EDT
Astronomical Twilight 6:11 AM EDT 8:35 PM EDT
Moon 12:34 PM EDT (10/9) 10:40 PM EDT (10/9)
Length of Visible Light 12h 19m
Length of Day
11h 25m
Waxing Crescent, 25% of the Moon is Illuminated
Oct 9
Waxing Crescent
Oct 11
First Quarter
Oct 18
Full
Oct 26
Last Quarter
Nov 3
New

Hourly Weather History & Observations

Time (EDT) Temp. Windchill Dew Point Humidity Pressure Visibility Wind Dir Wind Speed Gust Speed Precip Events Conditions
12:53 AM 51.1 °F - 43.0 °F 74% 30.23 in 10.0 mi ENE 4.6 mph - N/A   Clear
1:53 AM 50.0 °F - 43.0 °F 77% 30.22 in 10.0 mi ENE 5.8 mph - N/A   Clear
2:53 AM 46.9 °F - 42.1 °F 83% 30.22 in 10.0 mi ENE 6.9 mph - N/A   Clear
3:53 AM 46.9 °F - 43.0 °F 86% 30.20 in 10.0 mi ENE 8.1 mph - N/A   Clear
4:53 AM 46.9 °F - 43.0 °F 86% 30.19 in 10.0 mi ENE 8.1 mph - N/A   Clear
5:53 AM 48.0 °F - 43.0 °F 83% 30.21 in 10.0 mi ENE 6.9 mph - N/A   Clear
6:53 AM 46.9 °F - 42.1 °F 83% 30.21 in 10.0 mi ENE 9.2 mph - N/A   Clear
7:53 AM 46.0 °F 41.4 °F 42.1 °F 86% 30.23 in 10.0 mi ENE 9.2 mph - N/A   Clear
8:53 AM 50.0 °F - 44.1 °F 80% 30.25 in 10.0 mi East 6.9 mph - N/A   Clear
9:53 AM 55.9 °F - 46.9 °F 72% 30.26 in 10.0 mi ENE 4.6 mph - N/A   Clear
10:53 AM 60.1 °F - 46.9 °F 62% 30.26 in 10.0 mi ENE 3.5 mph - N/A   Clear
11:53 AM 64.0 °F - 48.9 °F 58% 30.25 in 10.0 mi Calm Calm - N/A   Clear
12:53 PM 66.9 °F - 48.9 °F 52% 30.24 in 10.0 mi Variable 3.5 mph - N/A   Clear
1:53 PM 69.1 °F - 48.0 °F 47% 30.22 in 10.0 mi NE 9.2 mph - N/A   Clear
2:53 PM 70.0 °F - 46.9 °F 44% 30.19 in 10.0 mi East 4.6 mph - N/A   Clear
3:53 PM 71.1 °F - 46.0 °F 41% 30.18 in 10.0 mi NNE 4.6 mph - N/A   Clear
4:53 PM 71.1 °F - 44.1 °F 38% 30.17 in 10.0 mi East 6.9 mph - N/A   Clear
5:53 PM 70.0 °F - 43.0 °F 38% 30.17 in 10.0 mi ESE 4.6 mph - N/A   Clear
6:53 PM 66.9 °F - 43.0 °F 42% 30.18 in 10.0 mi East 3.5 mph - N/A   Clear
7:53 PM 60.1 °F - 46.0 °F 60% 30.18 in 10.0 mi ENE 3.5 mph - N/A   Clear
8:53 PM 55.9 °F - 46.0 °F 69% 30.19 in 10.0 mi East 5.8 mph - N/A   Clear
9:53 PM 57.9 °F - 43.0 °F 58% 30.18 in 10.0 mi East 6.9 mph - N/A   Clear
10:53 PM 57.9 °F - 43.0 °F 58% 30.18 in 10.0 mi East 5.8 mph - N/A   Clear
11:53 PM 54.0 °F - 43.0 °F 66% 30.18 in 10.0 mi East 6.9 mph - N/A   Clear